Simultaneous Nadir Overpasses (SNOs) Predictions

Prediction of SNOs between LANDSAT-8 and METOP-B Satellite Orbit:

Table of predicted SNOs for the next 14.0 days since TLE Epoch: 1/24/2025
Index Date (LANDSAT-8) Time (LANDSAT-8) Lat,Lon (LANDSAT-8) SZA (LANDSAT-8 ) Date (METOP-B) Time (METOP-B) Lat,Lon (METOP-B) SZA (METOP-B ) Distance(km) Time Diff (sec)
1 01/26/2025 15:20:54 -81.43, 174.97 77.95 01/26/2025 15:20:18 -81.43, 175.16 77.94 3.18 36
2 01/26/2025 16:10:20 81.44, -17.26 102.07 01/26/2025 16:10:58 81.44, -17.24 102.08 0.32 38
3 01/29/2025 10:55:12 -81.42,-118.73 78.72 01/29/2025 10:54:54 -81.43,-118.83 78.73 1.76 18
4 01/29/2025 11:44:38 81.43, 49.01 101.29 01/29/2025 11:45:33 81.44, 49.14 101.33 2.14 55
5 02/01/2025 05:40:14 81.15, 135.15 99.84 02/01/2025 05:39:00 81.35, 134.81 99.94 22.27 74
6 02/01/2025 06:29:28 -81.42, -52.31 79.51 02/01/2025 06:29:27 -81.43, -52.16 79.49 2.67 1
7 02/01/2025 07:18:54 81.43, 115.40 100.49 02/01/2025 07:20:07 81.43, 115.37 100.53 0.89 73
8 02/04/2025 01:14:17 81.43,-153.42 99.69 02/04/2025 01:13:21 81.43,-153.54 99.66 1.96 56
9 02/04/2025 02:03:44 -81.43, 14.21 80.33 02/04/2025 02:04:01 -81.43, 14.36 80.30 2.49 17
10 02/06/2025 20:48:32 81.44, -86.81 98.85 02/06/2025 20:47:54 81.43, -86.79 98.84 0.54 38



Historial Predications of SNOs between LANDSAT-8 and METOP-B
